sat.trackr.live / text

‹ back to catalog

SHIJIAN-15 (SJ-15)

NORAD 39210 · 2013-037C

PAYLOAD ACTIVE UNKNOWN

§ Identity

Operator
Country
PRC
Launch date
2013-07-19
Launch site
TAISC
Launch vehicle
Mass (kg)
RCS (m²)
3.33

External: N2YO · Heavens-Above · Gunter

§ Orbital elements

Epoch: 2026-09-04T05:49:12.969408Z

Period
97.85 min
Inclination
98.1086°
Eccentricity
0.0004764
Mean motion
14.71585980 rev/d
Perigee alt
652.7 km
Apogee alt
659.4 km
Semi-major
7,034.1 km
B*
5.5636e-5
RAAN
249.9319°
Arg perigee
252.9482°
Mean anomaly
107.1203°
Rev number
70,595

§ Raw data

SHIJIAN-15 (SJ-15)1 39210U 13037C   26247.24251122  .00000296  00000+0  55636-4 0  99942 39210  98.1086 249.9319 0004764 252.9482 107.1203 14.71585980705957

JSON: /api/v1/satellites/39210 · /tle

For live sub-satellite position, see the globe view (requires WebGL).

§ Visibility from observer

Set your observer location to see the next 7 days of passes ≥ 10°. The values pass through the URL so the page stays shareable.

No JS? Fill the form by hand. The geolocation button needs JavaScript.